Location: Hains Lake
(37.8540°N, 99.8578°W)
Time: 12:24:24
(UTC+00:00)

Cosmos 1515 - Pass Details

Date: 11 December 2019
Orbit: 508 x 515 km, 82.5° (Epoch: 19 January)

Event Time Altitude Azimuth Distance (km) Brightness Sun altitude
Exits shadow 12:25:57 - 356° (N) 2,577 7.0 -15.1°
Reaches altitude 10° 12:27:58 10° 359° (N) 1,743 6.2 -14.7°
Maximum altitude 12:31:46 66° 82° (E) 563 4.0 -14.0°
Drops below altitude 10° 12:35:33 10° 165° (SSE) 1,733 6.8 -13.3°
Sets 12:37:41 0° 168° (SSE) 2,616 7.7 -12.9°
